QPF
0.00 0.00 0.00 0.00 0.00 0.00 0.00 0.00 0.00 0.00 0.00 0.00 0.00 0.00 0.00 0.00 0.00 0.00 0.00 0.00 0.00 0.01 0.01 0.01 0.01 0.01 0.01 0.01 0.01 0.01 0.01 0.02 0.02 0.02 0.01 0.01 0.02 0.02 0.02 0.02 0.02 0.02 0.02
0.00 0.00 0.00 0.00 0.00 0.00 0.00 0.00 0.00 0.00 0.00 0.00 0.00 0.00 0.00 0.00 0.00 0.00 0.00 0.00 0.01 0.02 0.02 0.02 0.02 0.01 0.01 0.01 0.01 0.02 0.02 0.02 0.03 0.03 0.02 0.01 0.01 0.02 0.02 0.03 0.03 0.04 0.03
0.00 0.00 0.00 0.00 0.00 0.00 0.00 0.00 0.00 0.00 0.00 0.00 0.00 0.00 0.00 0.00 0.00 0.00 0.00 0.00 0.01 0.01 0.01 0.01 0.01 0.00 0.00 0.01 0.01 0.01 0.02 0.02 0.02 0.03 0.03 0.02 0.02 0.02 0.01 0.01 0.03 0.03 0.03
0.00 0.00 0.00 0.00 0.00 0.00 0.00 0.00 0.00 0.00 0.00 0.00 0.00 0.00 0.00 0.00 0.00 0.00 0.00 0.00 0.01 0.00 0.01 0.01 0.01 0.00 0.02 0.02 0.02 0.01 0.01 0.01 0.02 0.02 0.02 0.02 0.02 0.02 0.01 0.01 0.02 0.02 0.03
0.00 0.00 0.00 0.00 0.00 0.00 0.00 0.00 0.00 0.00 0.00 0.00 0.00 0.00 0.00 0.00 0.00 0.00 0.00 0.00 0.00 0.01 0.01 0.01 0.01 0.01 0.01 0.01 0.01 0.01 0.01 0.01 0.01 0.01 0.02 0.01 0.01 0.01 0.01 0.01 0.01 0.02 0.02
0.00 0.00 0.00 0.00 0.00 0.00 0.00 0.00 0.00 0.00 0.00 0.00 0.00 0.00 0.00 0.00 0.00 0.00 0.00 0.00 0.00 0.00 0.00 0.00 0.01 0.01 0.00 0.00 0.00 0.00 0.00 0.00 0.01 0.01 0.01 0.01 0.01 0.01 0.01 0.01 0.01 0.02 0.01
0.00 0.00 0.00 0.00 0.00 0.00 0.00 0.00 0.00 0.00 0.00 0.00 0.00 0.00 0.00 0.00 0.00 0.00 0.00 0.00 0.00 0.00 0.00 0.00 0.00 0.00 0.00 0.00 0.00 0.00 0.00 0.01 0.01 0.02 0.01 0.01 0.00 0.00 0.01 0.01 0.01 0.01 0.01
0.00 0.00 0.00 0.00 0.00 0.00 0.00 0.00 0.00 0.00 0.00 0.00 0.00 0.00 0.00 0.00 0.00 0.00 0.00 0.00 0.00 0.00 0.00 0.00 0.00 0.00 0.00 0.00 0.00 0.00 0.00 0.01 0.01 0.01 0.00 0.00 0.00 0.00 0.01 0.01 0.01 0.01 0.01
0.00 0.00 0.00 0.00 0.00 0.00 0.00 0.00 0.00 0.00 0.00 0.00 0.00 0.00 0.00 0.00 0.00 0.00 0.00 0.00 0.00 0.00 0.00 0.00 0.00 0.00 0.00 0.00 0.00 0.00 0.00 0.00 0.00 0.01 0.00 0.00 0.00 0.00 0.01 0.01 0.01 0.01 0.01
0.00 0.00 0.00 0.00 0.00 0.00 0.00 0.00 0.00 0.00 0.00 0.00 0.00 0.00 0.00 0.00 0.00 0.00 0.00 0.00 0.00 0.00 0.00 0.00 0.00 0.00 0.00 0.00 0.00 0.00 0.00 0.00 0.00 0.01 0.00 0.00 0.00 0.00 0.00 0.00 0.01 0.01 0.01
0.00 0.00 0.00 0.00 0.00 0.00 0.00 0.00 0.00 0.00 0.00 0.00 0.00 0.00 0.00 0.00 0.00 0.00 0.00 0.00 0.00 0.00 0.00 0.00 0.00 0.00 0.00 0.00 0.00 0.00 0.00 0.00 0.00 0.00 0.00 0.00 0.00 0.00 0.00 0.00 0.00 0.00 0.00
0.00 0.00 0.00 0.00 0.00 0.00 0.00 0.00 0.00 0.00 0.00 0.00 0.00 0.00 0.00 0.00 0.00 0.00 0.00 0.00 0.00 0.00 0.00 0.00 0.00 0.00 0.00 0.00 0.00 0.00 0.00 0.00 0.00 0.00 0.00 0.00 0.00 0.00 0.00 0.00 0.00 0.00 0.00
0.00 0.00 0.00 0.01 0.01 0.01 0.00 0.00 0.00 0.00 0.00 0.00 0.00 0.00 0.00 0.00 0.00 0.00 0.00 0.00 0.00 0.00 0.00 0.00 0.00 0.00 0.00 0.00 0.00 0.00 0.00 0.00 0.00 0.00 0.00 0.00 0.00 0.00 0.00 0.00 0.00 0.00 0.00
0.00 0.00 0.00 0.01 0.01 0.01 0.01 0.01 0.00 0.00 0.00 0.00 0.00 0.00 0.00 0.00 0.00 0.00 0.00 0.00 0.00 0.00 0.00 0.00 0.00 0.00 0.00 0.00 0.00 0.00 0.00 0.00 0.00 0.00 0.00 0.00 0.00 0.00 0.00 0.00 0.00 0.00 0.00
0.00 0.00 0.00 0.01 0.01 0.01 0.01 0.01 0.01 0.01 0.01 0.00 0.00 0.00 0.00 0.00 0.00 0.00 0.00 0.00 0.00 0.00 0.00 0.00 0.00 0.00 0.00 0.00 0.00 0.00 0.00 0.00 0.00 0.00 0.00 0.00 0.00 0.00 0.00 0.00 0.00 0.00 0.00
0.00 0.00 0.01 0.01 0.01 0.01 0.01 0.01 0.01 0.01 0.01 0.01 0.00 0.00 0.00 0.00 0.00 0.00 0.00 0.00 0.00 0.00 0.00 0.00 0.00 0.00 0.00 0.00 0.00 0.00 0.00 0.00 0.00 0.00 0.00 0.00 0.00 0.00 0.00 0.00 0.00 0.00 0.00
0.00 0.00 0.01 0.01 0.01 0.02 0.02 0.02 0.02 0.02 0.01 0.01 0.01 0.01 0.00 0.00 0.00 0.00 0.00 0.00 0.00 0.00 0.00 0.00 0.00 0.00 0.00 0.00 0.00 0.00 0.00 0.00 0.00 0.00 0.00 0.00 0.00 0.00 0.00 0.00 0.00 0.00 0.00
0.00 0.00 0.01 0.01 0.02 0.02 0.02 0.02 0.02 0.02 0.02 0.01 0.01 0.01 0.01 0.01 0.01 0.00 0.00 0.00 0.00 0.00 0.00 0.00 0.00 0.00 0.00 0.00 0.00 0.00 0.00 0.00 0.00 0.00 0.00 0.00 0.00 0.00 0.00 0.00 0.00 0.00 0.00
0.00 0.01 0.01 0.01 0.02 0.02 0.03 0.03 0.02 0.02 0.02 0.02 0.02 0.02 0.02 0.02 0.01 0.01 0.01 0.00 0.00 0.00 0.00 0.00 0.00 0.00 0.00 0.00 0.00 0.00 0.00 0.00 0.00 0.00 0.00 0.00 0.00 0.00 0.00 0.00 0.00 0.00 0.00
0.00 0.01 0.01 0.02 0.02 0.03 0.03 0.03 0.03 0.03 0.02 0.02 0.02 0.02 0.03 0.02 0.02 0.01 0.01 0.01 0.01 0.00 0.00 0.00 0.00 0.00 0.00 0.00 0.00 0.00 0.00 0.00 0.00 0.00 0.00 0.00 0.00 0.00 0.00 0.00 0.00 0.00 0.00
0.00 0.00 0.01 0.01 0.02 0.02 0.03 0.04 0.04 0.04 0.04 0.03 0.03 0.03 0.03 0.03 0.02 0.02 0.02 0.01 0.01 0.01 0.01 0.00 0.00 0.00 0.00 0.00 0.00 0.00 0.00 0.00 0.00 0.00 0.00 0.00 0.00 0.00 0.00 0.00 0.00 0.00 0.00
0.00 0.00 0.01 0.01 0.02 0.03 0.04 0.04 0.05 0.05 0.05 0.05 0.04 0.03 0.04 0.03 0.02 0.02 0.02 0.02 0.02 0.01 0.01 0.01 0.01 0.00 0.00 0.00 0.00 0.00 0.00 0.00 0.00 0.00 0.00 0.00 0.00 0.00 0.00 0.00 0.00 0.00 0.00
0.00 0.00 0.01 0.01 0.02 0.04 0.05 0.06 0.06 0.06 0.06 0.06 0.05 0.04 0.04 0.03 0.03 0.02 0.02 0.02 0.02 0.02 0.02 0.01 0.01 0.01 0.00 0.00 0.00 0.00 0.00 0.00 0.00 0.00 0.00 0.00 0.00 0.00 0.00 0.00 0.00 0.00 0.00
0.00 0.00 0.01 0.01 0.03 0.04 0.05 0.06 0.07 0.07 0.06 0.07 0.06 0.05 0.04 0.04 0.04 0.04 0.04 0.03 0.02 0.02 0.02 0.01 0.01 0.01 0.00 0.00 0.00 0.00 0.00 0.00 0.00 0.00 0.00 0.00 0.00 0.00 0.00 0.00 0.00 0.00 0.00
0.00 0.00 0.01 0.02 0.03 0.04 0.05 0.06 0.07 0.08 0.07 0.07 0.06 0.06 0.06 0.05 0.05 0.04 0.04 0.04 0.03 0.02 0.02 0.02 0.01 0.01 0.01 0.00 0.00 0.00 0.00 0.00 0.00 0.00 0.00 0.00 0.00 0.00 0.00 0.00 0.00 0.00 0.00
0.00 0.00 0.01 0.02 0.03 0.04 0.06 0.06 0.07 0.08 0.08 0.08 0.07 0.07 0.07 0.07 0.06 0.05 0.05 0.04 0.04 0.04 0.03 0.03 0.02 0.02 0.01 0.01 0.00 0.00 0.00 0.00 0.00 0.00 0.00 0.00 0.00 0.00 0.00 0.00 0.00 0.00 0.00
MSLP
1012.56 1013.04 1013.49 1013.87 1014.15 1014.33 1014.41 1014.43 1014.42 1014.42 1014.44 1014.52 1014.64 1014.81 1015.00 1015.20 1015.39 1015.56 1015.70 1015.82 1015.92 1016.00 1016.07 1016.12 1016.16 1016.19 1016.21 1016.23 1016.26 1016.30 1016.35 1016.42 1016.49 1016.56 1016.60 1016.60 1016.54 1016.41 1016.21 1015.97 1015.70 1015.42 1015.18
1012.02 1012.51 1012.99 1013.41 1013.74 1013.98 1014.12 1014.18 1014.20 1014.20 1014.22 1014.28 1014.38 1014.52 1014.70 1014.91 1015.12 1015.32 1015.51 1015.67 1015.81 1015.92 1016.00 1016.05 1016.08 1016.09 1016.09 1016.10 1016.13 1016.18 1016.27 1016.39 1016.53 1016.66 1016.76 1016.82 1016.80 1016.70 1016.53 1016.29 1016.01 1015.72 1015.44
1011.54 1012.02 1012.51 1012.95 1013.33 1013.60 1013.79 1013.90 1013.95 1013.97 1014.00 1014.05 1014.14 1014.26 1014.43 1014.62 1014.84 1015.06 1015.27 1015.46 1015.62 1015.75 1015.85 1015.90 1015.93 1015.94 1015.94 1015.95 1015.99 1016.07 1016.18 1016.34 1016.52 1016.69 1016.85 1016.95 1016.97 1016.91 1016.76 1016.54 1016.27 1015.97 1015.67
1011.16 1011.61 1012.07 1012.51 1012.89 1013.19 1013.41 1013.56 1013.65 1013.70 1013.75 1013.81 1013.90 1014.02 1014.17 1014.36 1014.56 1014.78 1014.99 1015.19 1015.36 1015.51 1015.61 1015.68 1015.73 1015.75 1015.76 1015.79 1015.85 1015.94 1016.08 1016.25 1016.46 1016.66 1016.84 1016.97 1017.02 1016.99 1016.87 1016.68 1016.42 1016.13 1015.83
1010.90 1011.28 1011.69 1012.09 1012.44 1012.73 1012.96 1013.13 1013.26 1013.35 1013.44 1013.53 1013.63 1013.76 1013.92 1014.09 1014.28 1014.47 1014.67 1014.86 1015.03 1015.17 1015.29 1015.38 1015.44 1015.49 1015.53 1015.59 1015.67 1015.78 1015.93 1016.11 1016.32 1016.53 1016.72 1016.86 1016.93 1016.92 1016.84 1016.67 1016.45 1016.18 1015.88
1010.75 1011.04 1011.35 1011.66 1011.95 1012.21 1012.42 1012.60 1012.75 1012.89 1013.02 1013.16 1013.30 1013.45 1013.61 1013.78 1013.95 1014.12 1014.28 1014.45 1014.60 1014.73 1014.86 1014.96 1015.06 1015.14 1015.22 1015.31 1015.42 1015.55 1015.71 1015.89 1016.09 1016.28 1016.46 1016.60 1016.68 1016.70 1016.64 1016.52 1016.33 1016.10 1015.83
1010.70 1010.86 1011.05 1011.24 1011.43 1011.61 1011.78 1011.95 1012.12 1012.30 1012.48 1012.67 1012.86 1013.04 1013.22 1013.38 1013.53 1013.67 1013.80 1013.93 1014.05 1014.18 1014.30 1014.43 1014.55 1014.67 1014.79 1014.92 1015.06 1015.21 1015.37 1015.55 1015.73 1015.91 1016.07 1016.20 1016.29 1016.33 1016.31 1016.24 1016.10 1015.92 1015.70
1010.72 1010.74 1010.77 1010.82 1010.89 1010.97 1011.07 1011.21 1011.37 1011.58 1011.80 1012.04 1012.27 1012.49 1012.69 1012.85 1012.99 1013.10 1013.19 1013.29 1013.38 1013.49 1013.62 1013.76 1013.91 1014.07 1014.24 1014.41 1014.58 1014.75 1014.91 1015.08 1015.25 1015.41 1015.56 1015.69 1015.79 1015.86 1015.88 1015.86 1015.79 1015.68 1015.51
1010.80 1010.67 1010.55 1010.44 1010.36 1010.32 1010.34 1010.42 1010.57 1010.77 1011.02 1011.29 1011.55 1011.80 1012.01 1012.17 1012.29 1012.38 1012.45 1012.51 1012.59 1012.69 1012.82 1012.98 1013.16 1013.36 1013.57 1013.78 1013.98 1014.17 1014.35 1014.52 1014.68 1014.83 1014.98 1015.11 1015.24 1015.34 1015.41 1015.46 1015.46 1015.42 1015.33
1010.93 1010.67 1010.40 1010.15 1009.92 1009.76 1009.67 1009.67 1009.77 1009.94 1010.17 1010.44 1010.71 1010.97 1011.18 1011.34 1011.45 1011.52 1011.57 1011.63 1011.70 1011.80 1011.95 1012.13 1012.35 1012.58 1012.83 1013.07 1013.31 1013.52 1013.71 1013.89 1014.06 1014.22 1014.38 1014.53 1014.69 1014.83 1014.96 1015.07 1015.15 1015.18 1015.17
1011.14 1010.76 1010.37 1009.98 1009.62 1009.33 1009.13 1009.03 1009.05 1009.15 1009.34 1009.56 1009.81 1010.03 1010.22 1010.37 1010.48 1010.55 1010.60 1010.66 1010.75 1010.87 1011.04 1011.26 1011.51 1011.78 1012.07 1012.34 1012.60 1012.84 1013.05 1013.25 1013.43 1013.61 1013.80 1013.99 1014.19 1014.39 1014.58 1014.75 1014.89 1015.00 1015.05
1011.40 1010.95 1010.46 1009.97 1009.50 1009.09 1008.77 1008.56 1008.47 1008.47 1008.56 1008.70 1008.88 1009.05 1009.20 1009.32 1009.42 1009.50 1009.57 1009.66 1009.78 1009.95 1010.16 1010.41 1010.70 1011.01 1011.32 1011.62 1011.91 1012.16 1012.40 1012.62 1012.84 1013.06 1013.28 1013.52 1013.77 1014.03 1014.28 1014.51 1014.71 1014.87 1014.98
1011.72 1011.22 1010.67 1010.11 1009.55 1009.05 1008.62 1008.29 1008.06 1007.93 1007.89 1007.91 1007.97 1008.06 1008.15 1008.24 1008.33 1008.42 1008.52 1008.66 1008.84 1009.06 1009.33 1009.63 1009.96 1010.30 1010.63 1010.95 1011.25 1011.52 1011.78 1012.03 1012.29 1012.55 1012.83 1013.13 1013.44 1013.76 1014.07 1014.35 1014.60 1014.81 1014.96
1012.04 1011.53 1010.97 1010.37 1009.76 1009.18 1008.65 1008.19 1007.82 1007.54 1007.34 1007.21 1007.15 1007.12 1007.13 1007.17 1007.25 1007.36 1007.51 1007.70 1007.95 1008.24 1008.57 1008.92 1009.28 1009.65 1009.99 1010.32 1010.63 1010.91 1011.19 1011.48 1011.77 1012.09 1012.44 1012.80 1013.18 1013.56 1013.93 1014.26 1014.55 1014.79 1014.96
1012.31 1011.82 1011.27 1010.67 1010.04 1009.41 1008.80 1008.24 1007.73 1007.29 1006.93 1006.64 1006.42 1006.27 1006.19 1006.18 1006.23 1006.36 1006.55 1006.81 1007.13 1007.48 1007.87 1008.27 1008.66 1009.03 1009.39 1009.71 1010.02 1010.31 1010.61 1010.93 1011.27 1011.65 1012.06 1012.50 1012.96 1013.40 1013.83 1014.21 1014.53 1014.79 1014.98
1012.47 1012.03 1011.52 1010.94 1010.33 1009.67 1009.01 1008.36 1007.74 1007.15 1006.63 1006.18 1005.81 1005.54 1005.36 1005.29 1005.32 1005.46 1005.68 1005.99 1006.37 1006.78 1007.21 1007.63 1008.04 1008.42 1008.77 1009.08 1009.38 1009.68 1010.00 1010.35 1010.75 1011.19 1011.68 1012.20 1012.73 1013.24 1013.73 1014.16 1014.52 1014.80 1015.00
1012.47 1012.09 1011.63 1011.11 1010.53 1009.89 1009.21 1008.50 1007.78 1007.09 1006.43 1005.84 1005.34 1004.94 1004.67 1004.54 1004.53 1004.66 1004.91 1005.24 1005.65 1006.10 1006.55 1006.99 1007.39 1007.76 1008.09 1008.39 1008.68 1008.99 1009.33 1009.72 1010.17 1010.68 1011.25 1011.85 1012.46 1013.05 1013.60 1014.08 1014.48 1014.79 1015.01
1012.30 1011.97 1011.59 1011.14 1010.61 1010.01 1009.33 1008.61 1007.84 1007.06 1006.31 1005.61 1004.99 1004.49 1004.14 1003.93 1003.88 1003.98 1004.22 1004.55 1004.96 1005.41 1005.86 1006.29 1006.67 1007.02 1007.33 1007.61 1007.90 1008.21 1008.58 1009.01 1009.52 1010.11 1010.75 1011.44 1012.13 1012.80 1013.41 1013.95 1014.39 1014.74 1014.99
1011.95 1011.69 1011.38 1011.00 1010.55 1010.01 1009.37 1008.66 1007.88 1007.06 1006.25 1005.47 1004.77 1004.18 1003.74 1003.47 1003.36 1003.41 1003.60 1003.90 1004.28 1004.69 1005.11 1005.51 1005.86 1006.18 1006.47 1006.74 1007.03 1007.36 1007.76 1008.24 1008.82 1009.47 1010.20 1010.96 1011.73 1012.47 1013.15 1013.74 1014.24 1014.62 1014.91
1011.48 1011.27 1011.03 1010.73 1010.36 1009.89 1009.31 1008.64 1007.88 1007.06 1006.22 1005.39 1004.63 1003.98 1003.47 1003.11 1002.93 1002.91 1003.03 1003.26 1003.58 1003.94 1004.30 1004.65 1004.96 1005.25 1005.52 1005.80 1006.10 1006.46 1006.90 1007.44 1008.07 1008.80 1009.59 1010.43 1011.26 1012.07 1012.81 1013.45 1014.00 1014.43 1014.75
1010.92 1010.75 1010.57 1010.35 1010.05 1009.66 1009.16 1008.54 1007.82 1007.02 1006.18 1005.33 1004.54 1003.83 1003.24 1002.81 1002.54 1002.43 1002.46 1002.61 1002.85 1003.12 1003.42 1003.72 1004.00 1004.26 1004.53 1004.82 1005.15 1005.55 1006.05 1006.64 1007.34 1008.13 1008.98 1009.87 1010.76 1011.61 1012.39 1013.08 1013.67 1014.15 1014.52
1010.30 1010.17 1010.04 1009.88 1009.66 1009.34 1008.91 1008.35 1007.68 1006.91 1006.08 1005.23 1004.40 1003.65 1003.00 1002.49 1002.14 1001.93 1001.87 1001.92 1002.06 1002.26 1002.50 1002.75 1003.00 1003.26 1003.55 1003.86 1004.24 1004.70 1005.26 1005.91 1006.66 1007.50 1008.40 1009.32 1010.24 1011.12 1011.93 1012.65 1013.27 1013.79 1014.20
1009.66 1009.56 1009.46 1009.35 1009.18 1008.92 1008.54 1008.04 1007.41 1006.67 1005.85 1005.00 1004.15 1003.36 1002.66 1002.08 1001.64 1001.34 1001.19 1001.15 1001.22 1001.36 1001.55 1001.78 1002.03 1002.31 1002.63 1003.01 1003.45 1003.97 1004.59 1005.30 1006.11 1006.98 1007.90 1008.84 1009.77 1010.65 1011.47 1012.20 1012.83 1013.37 1013.82
1008.99 1008.91 1008.84 1008.76 1008.62 1008.39 1008.04 1007.57 1006.96 1006.24 1005.43 1004.57 1003.71 1002.88 1002.13 1001.50 1000.99 1000.63 1000.41 1000.31 1000.33 1000.44 1000.62 1000.85 1001.14 1001.47 1001.85 1002.30 1002.82 1003.42 1004.10 1004.87 1005.71 1006.60 1007.53 1008.47 1009.38 1010.25 1011.05 1011.77 1012.40 1012.96 1013.43
1008.30 1008.23 1008.17 1008.10 1007.96 1007.74 1007.40 1006.92 1006.32 1005.59 1004.78 1003.90 1003.02 1002.17 1001.39 1000.72 1000.18 999.78 999.53 999.41 999.42 999.54 999.74 1000.03 1000.37 1000.78 1001.25 1001.79 1002.40 1003.07 1003.82 1004.63 1005.50 1006.40 1007.32 1008.23 1009.11 1009.94 1010.71 1011.41 1012.03 1012.58 1013.05
1007.59 1007.52 1007.45 1007.36 1007.21 1006.97 1006.60 1006.10 1005.47 1004.72 1003.89 1003.00 1002.10 1001.23 1000.44 999.77 999.22 998.82 998.58 998.49 998.53 998.70 998.97 999.34 999.78 1000.29 1000.86 1001.50 1002.19 1002.95 1003.75 1004.60 1005.48 1006.38 1007.27 1008.15 1008.98 1009.77 1010.49 1011.15 1011.74 1012.27 1012.74
Thickness
5713 5709 5707 5704 5701 5698 5695 5692 5690 5687 5685 5682 5679 5676 5673 5670 5668 5666 5665 5664 5663 5663 5663 5663 5664 5665 5665 5667 5668 5670 5671 5672 5670 5673 5677 5681 5685 5688 5692 5695 5697 5699 5702
5713 5709 5706 5704 5700 5697 5695 5693 5691 5688 5686 5683 5680 5677 5674 5672 5669 5667 5666 5665 5664 5663 5663 5663 5663 5664 5664 5664 5665 5667 5668 5670 5670 5670 5673 5675 5679 5682 5685 5688 5691 5693 5695
5712 5708 5705 5703 5700 5698 5696 5694 5691 5689 5686 5684 5681 5678 5676 5673 5671 5669 5667 5665 5664 5663 5663 5663 5663 5663 5662 5663 5664 5664 5666 5667 5668 5668 5668 5670 5673 5676 5679 5681 5684 5686 5689
5711 5708 5705 5703 5701 5699 5697 5694 5691 5689 5687 5684 5682 5680 5678 5675 5672 5670 5668 5666 5665 5664 5663 5663 5663 5662 5662 5662 5662 5663 5663 5664 5664 5664 5665 5665 5667 5670 5672 5673 5675 5677 5680
5711 5708 5706 5705 5702 5699 5696 5694 5691 5689 5687 5685 5682 5680 5678 5676 5674 5671 5669 5667 5665 5663 5663 5663 5663 5663 5663 5662 5662 5661 5661 5660 5660 5660 5660 5661 5662 5664 5665 5667 5668 5669 5672
5709 5708 5706 5703 5700 5697 5696 5693 5690 5688 5686 5684 5681 5680 5678 5677 5677 5674 5671 5668 5665 5664 5663 5662 5662 5663 5663 5663 5663 5662 5661 5659 5658 5657 5657 5657 5658 5660 5661 5661 5661 5662 5664
5706 5705 5703 5700 5698 5697 5695 5692 5689 5687 5685 5682 5681 5679 5677 5677 5677 5675 5673 5668 5666 5664 5663 5662 5662 5663 5662 5661 5661 5661 5660 5660 5659 5657 5656 5656 5656 5657 5657 5657 5657 5657 5658
5700 5699 5698 5697 5695 5694 5692 5690 5689 5687 5684 5682 5681 5679 5677 5677 5677 5676 5673 5669 5666 5664 5663 5662 5660 5660 5660 5659 5658 5657 5656 5656 5657 5656 5656 5656 5656 5656 5655 5654 5654 5653 5653
5691 5692 5693 5692 5692 5691 5689 5689 5687 5685 5683 5681 5680 5679 5677 5677 5677 5675 5673 5667 5664 5663 5662 5661 5660 5659 5659 5658 5655 5654 5653 5653 5654 5655 5654 5654 5653 5653 5652 5650 5649 5648 5648
5683 5685 5686 5687 5687 5688 5689 5688 5685 5683 5682 5681 5679 5678 5677 5676 5676 5675 5672 5666 5663 5661 5660 5659 5660 5658 5658 5657 5654 5652 5650 5650 5650 5650 5649 5649 5649 5648 5648 5647 5646 5644 5643
5674 5676 5679 5680 5682 5684 5684 5684 5681 5679 5678 5676 5676 5676 5674 5674 5674 5673 5671 5666 5663 5661 5659 5658 5658 5658 5657 5655 5653 5651 5650 5649 5647 5645 5644 5643 5643 5642 5642 5641 5641 5640 5638
5662 5665 5668 5671 5673 5676 5676 5676 5675 5674 5672 5671 5670 5670 5671 5671 5670 5670 5669 5667 5665 5661 5659 5658 5657 5656 5655 5653 5651 5649 5648 5646 5642 5640 5639 5637 5637 5636 5636 5635 5635 5634 5633
5649 5652 5655 5659 5661 5664 5666 5667 5666 5666 5665 5666 5665 5666 5667 5667 5666 5667 5666 5665 5663 5660 5659 5658 5655 5654 5652 5649 5648 5646 5644 5640 5638 5636 5634 5633 5632 5631 5630 5629 5627 5626 5625
5633 5636 5640 5643 5647 5650 5653 5656 5657 5658 5658 5659 5660 5661 5662 5661 5661 5661 5661 5660 5659 5656 5654 5652 5651 5648 5646 5644 5643 5641 5639 5637 5635 5633 5631 5628 5626 5624 5623 5622 5620 5618 5617
5616 5619 5623 5627 5631 5635 5640 5643 5647 5651 5653 5654 5656 5657 5656 5657 5661 5660 5657 5655 5654 5652 5648 5643 5641 5639 5637 5635 5634 5634 5633 5631 5629 5627 5625 5622 5620 5618 5616 5614 5612 5610 5607
5599 5602 5605 5609 5614 5619 5624 5630 5636 5639 5644 5647 5650 5651 5653 5655 5656 5654 5653 5652 5649 5646 5641 5639 5637 5635 5634 5632 5630 5627 5626 5625 5624 5622 5619 5617 5614 5612 5609 5606 5603 5601 5598
5580 5583 5587 5591 5596 5601 5606 5612 5620 5627 5631 5636 5639 5642 5644 5646 5646 5646 5645 5643 5641 5638 5636 5636 5634 5633 5630 5628 5626 5624 5621 5620 5618 5616 5613 5610 5608 5605 5601 5598 5595 5592 5588
5566 5568 5571 5573 5577 5583 5589 5595 5601 5608 5616 5623 5627 5630 5633 5635 5636 5636 5634 5631 5629 5630 5631 5631 5630 5628 5626 5624 5621 5619 5616 5612 5610 5608 5606 5603 5600 5597 5593 5590 5587 5584 5580
5551 5552 5554 5557 5561 5565 5571 5577 5584 5591 5599 5607 5612 5616 5619 5621 5623 5623 5623 5624 5626 5626 5626 5625 5624 5623 5621 5619 5617 5614 5611 5607 5604 5602 5599 5596 5592 5589 5585 5581 5578 5576 5571
5536 5539 5541 5542 5545 5549 5554 5560 5566 5573 5580 5588 5596 5601 5603 5604 5607 5610 5613 5616 5619 5620 5621 5620 5618 5617 5615 5613 5610 5607 5604 5600 5597 5594 5591 5588 5584 5581 5577 5573 5569 5566 5562
5523 5523 5526 5526 5527 5531 5535 5541 5548 5554 5562 5571 5580 5586 5589 5593 5599 5602 5604 5607 5610 5612 5613 5612 5611 5610 5608 5606 5603 5600 5597 5594 5591 5587 5584 5580 5576 5572 5568 5564 5561 5557 5553
5510 5509 5509 5510 5512 5515 5519 5524 5530 5537 5545 5553 5562 5568 5574 5579 5584 5589 5593 5597 5600 5602 5604 5603 5603 5602 5601 5600 5597 5594 5591 5587 5584 5580 5576 5572 5568 5564 5560 5555 5551 5548 5544
5498 5497 5497 5497 5498 5501 5505 5508 5513 5520 5528 5537 5544 5551 5557 5563 5569 5575 5580 5584 5587 5589 5591 5593 5593 5592 5592 5591 5591 5589 5586 5582 5579 5575 5569 5564 5559 5555 5551 5547 5543 5539 5535
5486 5485 5485 5485 5486 5487 5490 5494 5499 5505 5512 5520 5528 5536 5542 5549 5555 5561 5566 5569 5573 5577 5579 5581 5584 5584 5583 5582 5581 5580 5578 5575 5571 5567 5563 5558 5552 5547 5543 5538 5534 5531 5527
5475 5473 5473 5473 5474 5475 5477 5481 5486 5492 5499 5507 5515 5523 5529 5536 5542 5548 5553 5557 5561 5565 5568 5570 5572 5573 5573 5573 5571 5569 5567 5565 5561 5557 5553 5548 5543 5538 5534 5529 5525 5521 5517
5466 5464 5463 5462 5462 5463 5465 5468 5474 5480 5487 5494 5502 5510 5517 5524 5531 5536 5542 5546 5550 5554 5556 5559 5561 5562 5562 5561 5560 5558 5555 5553 5550 5547 5543 5538 5533 5528 5524 5520 5516 5512 5508